Regional Weather Roundup
Issued by NWS

Home | Current Version | Previous Version | Graphics & Text | Print | Product List | Glossary On
Versions: 1 2 3 4 5 6 7 8 9 10 11 12 13 14 15 16 17 18 19 20 21 22 23 24 25 26 27 28 29 30 31 32 33 34 35 36 37 38 39 40 41 42 43 44 45 46 47 48 49 50
000
ASUS45 KSLC 280610
RWRUT

UTAH REGIONAL WEATHER ROUNDUP
NATIONAL WEATHER SERVICE SALT LAKE CITY UT
1200 AM MDT MON JUL 28 2014

UTZ001>011-023>025-280700-

NORTHERN UTAH

CITY           SKY/WX    TMP DP  RH WIND       PRES   REMARKS
HILL AFB       MOCLDY    81  42  24 SE10      30.15S
LOGAN          CLEAR     69  48  47 CALM      30.14S
OGDEN          MOCLDY    82  35  18 SE6       30.11S
PROVO AIRPORT  CLOUDY    79  48  34 S6        30.18R
SALT LAKE CITY CLOUDY    83  39  21 SE7       30.10S
VERNAL         PTCLDY    75  43  31 S6        30.23R
WENDOVER       CLOUDY    86  43  22 W6        30.14S
HEBER CITY     CLOUDY    70  46  43 CALM      30.24S
WEST JORDAN    PTCLDY    84  45  24 CALM      30.15S

$$

UTZ012>022-026-027-280700-

SOUTHERN UTAH

CITY           SKY/WX    TMP DP  RH WIND       PRES   REMARKS
BRYCE CANYON   CLOUDY    63  51  65 S6        30.45R
CEDAR CITY     MOCLDY    67  55  65 S6        30.28R
MILFORD        CLOUDY    78  48  34 NE6       30.22R
MOAB/CYNLANDS  LGT RAIN  72  61  68 W6        30.25R
PRICE          CLOUDY    78  44  29 SW6       30.31S
ST GEORGE      CLOUDY    84  54  34 SE17      30.09R
KANAB          CLOUDY    68  55  64 SE17G25   30.32R

$$

REGIONAL REPORTS     COLORADO/ARIZONA

CITY           SKY/WX    TMP DP  RH WIND       PRES   REMARKS
CRAIG, CO      PTCLDY    49  49 100 E3        30.33R
GRAND JUNCTION MOCLDY    76  49  38 E13       30.21R
RIFLE          MOCLDY    72  46  39 SE8       30.28R
MONTROSE       MOCLDY    70  51  51 SE7       30.33R
CORTEZ         MOCLDY    67  58  72 S6        30.38F
PAGE, AZ       CLOUDY    77  56  48 SW16G26   30.20F
GRAND CANYON   LGT RAIN  61  57  87 SE5       30.44S
KINGMAN        MOCLDY    80  55  42 CALM      30.12S
FLAGSTAFF      CLOUDY    63  50  62 NW5       30.44R

$$

REGIONAL REPORTS    NEVADA/IDAHO/WYOMING

CITY           SKY/WX    TMP DP  RH WIND       PRES   REMARKS
LAS VEGAS, NV  MOCLDY    82  63  52 S13       29.99S
ELY            CLOUDY    65  51  60 S6        30.36S
ELKO           CLOUDY    78  44  29 S12       30.21R
POCATELLO, ID  CLEAR     72  34  24 SE3       30.14S
BURLEY         CLOUDY    71  59  65 SE5       30.10R
EVANSTON, WY   MOCLDY    70  25  18 S5        30.38S
ROCK SPRINGS   CLEAR     69  35  28 E17       30.38R

$$



USA.gov is the U.S. government's official web portal to all federal, state and local government web resources and services.